Location: ?????????
(38.0736°N, 23.2119°E)
Time: 03:03:48
(UTC+00:00)

SPOT 3 Rocket - Pass Details

Date: 18 April 2024
Orbit: 776 x 793 km, 98.6° (Epoch: 20 May)

Event Time Altitude Azimuth Distance (km) Brightness Sun altitude
Exits shadow 19:55:10 57° 11° (N) 924 3.9 -29.4°
Drops below altitude 10° 19:59:21 10° 351° (N) 2,356 6.7 -29.9°
Sets 20:01:41 0° 349° (N) 3,286 7.6 -30.2°
